Location: Feigenhofen
(48.4939°N, 10.7793°E)
Time: 21:53:46
(UTC+00:00)

Cosmos 332 Rocket - Pass Details

Date: 26 May 2022
Orbit: 681 x 703 km, 74.0° (Epoch: 24 June)

Event Time Altitude Azimuth Distance (km) Brightness Sun altitude
Exits shadow 00:28:23 35° 175° (S) 1,099 4.3 -18.4°
Maximum altitude 00:30:15 63° 109° (ESE) 766 3.9 -18.4°
Drops below altitude 10° 00:34:59 10° 29° (NNE) 2,134 7.6 -18.1°
Sets 00:37:19 0° 26° (NNE) 3,054 8.8 -18.0°
